Regional Weather Roundup
Issued by NWS

Home | Current Version | Previous Version | Graphics & Text | Print | Product List | Glossary On
Versions: 1 2 3 4 5 6 7 8 9 10 11 12 13 14 15 16 17 18 19 20 21 22 23 24 25 26 27 28 29 30 31 32 33 34 35 36 37 38 39 40 41 42 43 44 45 46 47 48 49 50
000
ASUS43 KOAX 242310
RWRNE

WEATHER ROUNDUP FOR NEBRASKA
NATIONAL WEATHER SERVICE OMAHA NE
500 PM CST WED DEC 24 2014

NOTES: SATELLITE DATA IS BEING USED TO AUGMENT CLOUD COVER ABOVE
       12000 FEET.
       "FAIR" INDICATES FEW OR NO CLOUDS BELOW 12,000 FEET WITH NO
       SIGNIFICANT WEATHER AND/OR OBSTRUCTIONS TO VISIBILITY.

  * THESE STATIONS DO NOT REPORT WEATHER SUCH AS RAIN...SNOW OR FOG.

NEZ001>004-019>022-054>056-250000-
NEBRASKA PANHANDLE

CITY           SKY/WX    TMP DP  RH WIND       PRES   REMARKS
SCOTTSBLUFF    MOCLDY    42  26  53 W16       29.59F
ALLIANCE       CLOUDY    40  25  55 SW9       29.57F WCI  34
CHADRON        MOCLDY    35  25  66 SW9       29.54F WCI  28
KIMBALL        MOCLDY    39  25  57 W6        29.60F WCI  35
SIDNEY         MOCLDY    36  23  59 SW9       29.63F WCI  29
$$

NEZ057>060-069>072-079>082-250000-
SOUTHWEST NEBRASKA

CITY           SKY/WX    TMP DP  RH WIND       PRES   REMARKS
NORTH PLATTE   MOCLDY    38  22  52 S9        29.64F WCI  31
IMPERIAL       PTCLDY    40  23  50 SW9       29.65F WCI  34
LEXINGTON      CLEAR     37  22  54 SW7       29.69F WCI  32
MCCOOK         PTCLDY    42  21  43 SW8       29.69F
OGALLALA       PTCLDY    37  26  65 W6        29.64S WCI  32
$$

NEZ005>010-023>029-035>040-094-250000-
NORTH CENTRAL NEBRASKA

CITY           SKY/WX    TMP DP  RH WIND       PRES   REMARKS
VALENTINE      CLOUDY    34  24  67 SW8       29.56F WCI  27
AINSWORTH      CLOUDY    34  25  69 SW9       29.58F WCI  26
BROKEN BOW     PTCLDY    36  26  67 S8        29.64F WCI  30
O`NEILL        PTCLDY    31  25  77 S7        29.63F WCI  24
ORD            PTCLDY    35  24  64 S7        29.66F WCI  29
THEDFORD       CLOUDY    37  26  64 SW7       29.60F WCI  32
$$

NEZ041-046>049-061>064-073>077-083>087-250000-
SOUTH CENTRAL NEBRASKA

CITY           SKY/WX    TMP DP  RH WIND       PRES   REMARKS
GRAND ISLAND   PTCLDY    35  24  64 SW8       29.71F WCI  29
AURORA         CLEAR     36  25  64 SW6       29.71F WCI  31
HASTINGS       PTCLDY    38  23  55 SW6       29.71F WCI  33
HEBRON         CLEAR     38  23  55 SW5       29.77R WCI  34
HOLDREGE       CLEAR     36  23  58 SW8       29.71F WCI  30
KEARNEY *      PTCLDY    37  23  56 S10       29.71F WCI  30
YORK           CLEAR     36  27  69 W7        29.73F WCI  30
$$

NEZ011>018-030>034-042>045-250000-
NORTHEAST NEBRASKA

CITY           SKY/WX    TMP DP  RH WIND       PRES   REMARKS
NORFOLK        CLEAR     27  24  89 SE3       29.69F
ALBION         CLEAR     33  25  70 S3        29.68F
BLAIR          CLOUDY    30  26  87 SW6       29.75R WCI  24
COLUMBUS *     CLEAR     32  25  74 SE6       29.73F WCI  26
FREMONT        CLOUDY    31  28  88 SW6       29.75F WCI  25
TEKAMAH        CLOUDY    30  26  85 W7        29.76S WCI  23
WAYNE          CLOUDY    28  26  92 SW9       29.71F WCI  19
$$

NEZ050>053-065>068-078-088>093-250000-
SOUTHEAST NEBRASKA

CITY           SKY/WX    TMP DP  RH WIND       PRES   REMARKS
LINCOLN        CLEAR     30  26  85 S6        29.77F WCI  24
OMAHA EPPLEY   CLOUDY    31  27  85 SW7       29.78S WCI  24
BEATRICE       CLEAR     31  27  87 S6        29.78S WCI  25
FALLS CITY     CLOUDY    33  28  81 W7        29.81S WCI  27
NEBRASKA CITY  CLOUDY    31  30  99 W12       29.79S WCI  21
PLATTSMOUTH    CLOUDY    30  26  88 SW9       29.78R WCI  21
$$

NEZ044-045-051>053-067-250000-
OMAHA AREA

CITY           SKY/WX    TMP DP  RH WIND       PRES   REMARKS
OMAHA EPPLEY   CLOUDY    31  27  85 SW7       29.78S WCI  24
BLAIR          CLOUDY    30  26  87 SW6       29.75R WCI  24
FREMONT        CLOUDY    31  28  88 SW6       29.75F WCI  25
MILLARD        CLOUDY    31  26  83 CALM      29.78S
OFFUTT AFB     CLOUDY    30  27  87 W8        29.77S WCI  23
PLATTSMOUTH    CLOUDY    30  26  88 SW9       29.78R WCI  21
WAHOO          CLOUDY    31  26  82 SW5       29.76F WCI  27
$$


USA.gov is the U.S. government's official web portal to all federal, state and local government web resources and services.